Lid_Strength_Index
8 11 13 11 10 10 10 12 13 11 11 13 14 14 13 13 13 13 12 13 12 12 11 10 10 10 10 10 9 8 7 8 6 4 2 1 2 3 3 3 4 5 5 5
11 13 10 9 9 10 10 12 13 11 10 12 14 15 13 13 14 13 13 13 13 12 12 11 11 11 11 10 9 9 8 9 8 6 3 2 3 4 5 5 5 5 6 6
13 11 8 9 10 11 11 12 13 13 11 11 12 14 13 13 13 13 13 13 13 12 12 12 12 12 11 11 11 10 10 9 9 8 5 5 5 6 7 7 7 7 8 8
11 9 10 10 11 10 13 9 11 12 13 17 11 19 13 14 15 15 15 14 14 13 12 12 12 12 12 12 12 11 11 10 10 9 8 9 9 11 10 9 9 9 9 10
12 11 11 12 11 9 12 9 11 11 13 14 14 17 15 14 15 15 15 14 14 13 13 14 13 13 13 13 13 12 11 11 12 11 11 11 11 11 11 11 11 11 11 11
10 9 10 10 9 8 9 11 11 12 14 19 15 16 17 15 14 14 14 13 13 13 13 13 12 13 14 14 13 13 13 13 12 13 13 13 13 13 13 13 13 13 12 12
12 11 10 9 11 9 10 13 19 20 20 20 14 16 17 14 13 14 14 13 13 13 14 13 13 13 14 14 13 13 13 14 13 13 14 14 14 13 14 14 14 14 14 13
16 17 11 10 10 13 12 13 18 22 21 20 15 18 17 15 13 13 13 13 13 13 13 13 13 13 14 14 14 14 14 14 14 14 14 14 14 14 14 14 14 14 14 14
16 16 11 10 9 10 13 15 12 16 18 19 17 17 15 15 15 14 14 13 13 13 13 13 13 13 14 14 14 15 14 14 14 14 14 14 14 14 14 14 14 14 14 13
12 16 12 11 9 10 11 10 16 15 21 22 19 20 19 17 16 15 14 14 13 13 13 13 14 14 14 14 15 14 14 15 14 14 14 14 14 14 14 14 15 14 14 13
10 13 14 11 14 13 13 14 13 14 16 20 22 19 15 15 15 15 15 14 13 13 13 14 14 14 15 15 15 15 15 15 15 14 14 14 15 14 14 15 15 14 14 13
10 12 16 15 12 11 11 12 13 17 18 17 17 18 14 13 14 14 14 13 13 12 13 14 14 14 15 15 15 15 14 15 14 14 14 14 14 15 15 15 15 14 14 14
10 14 17 16 13 11 13 13 11 12 14 16 19 19 15 14 15 14 14 14 13 13 13 13 13 14 14 14 14 15 14 14 14 14 15 15 15 15 15 15 15 15 15 14
8 13 15 18 16 13 15 14 12 13 17 16 16 17 17 15 14 14 13 13 12 12 12 12 12 13 13 14 14 14 14 14 14 14 15 15 15 16 16 15 15 14 14 14
11 16 15 16 16 12 13 13 13 14 14 16 15 16 15 14 13 13 13 13 13 13 13 13 12 12 13 14 14 14 14 14 14 14 15 16 15 15 15 15 14 14 14 14
11 15 16 17 15 13 14 13 13 12 12 15 15 15 13 13 14 14 13 13 13 13 12 12 11 11 13 13 14 14 14 14 14 15 15 15 15 15 15 15 15 15 15 15
13 15 16 17 18 18 16 16 14 13 13 14 16 13 12 14 13 13 13 13 12 12 12 12 12 12 13 14 14 15 15 14 15 15 15 16 16 16 16 16 16 16 16 16
15 16 18 19 21 23 17 16 16 13 14 13 14 12 12 12 13 13 12 12 12 12 12 12 12 13 14 15 15 15 15 15 15 16 16 16 16 16 16 16 17 17 17 17
13 16 23 22 29 21 17 16 15 15 14 13 14 15 14 14 14 15 13 12 12 12 12 12 12 13 15 15 15 15 15 16 16 17 17 17 17 17 17 17 18 18 18 17
14 16 18 28 25 25 17 16 14 14 18 13 13 14 14 14 17 16 13 12 12 12 12 13 14 14 15 16 16 16 16 17 18 18 17 17 17 18 18 18 18 18 18 17
24 25 24 29 28 22 16 14 14 19 16 13 12 13 13 14 14 13 12 13 12 12 12 13 14 14 15 16 17 17 18 18 18 18 18 18 18 19 19 19 20 19 19 18
21 23 26 29 27 23 14 15 16 14 14 13 13 13 13 13 13 13 13 13 12 12 13 13 15 15 16 17 18 18 19 18 19 19 19 20 21 20 19 23 22 22 22 22
21 17 20 18 18 14 14 14 13 12 13 13 13 13 12 13 13 13 13 13 13 13 13 14 16 16 17 18 18 19 19 19 20 21 23 23 23 21 21 24 23 23 23 23
16 15 17 17 16 14 13 13 12 12 13 12 13 13 13 13 13 13 13 13 14 14 15 16 17 18 18 19 19 20 20 20 23 24 23 23 23 23 23 21 21 24 23 23
16 15 17 18 15 14 13 13 12 12 12 12 13 12 13 13 13 13 14 14 14 15 15 16 18 18 19 20 21 22 21 22 23 23 23 23 23 24 23 22 22 21 20 20
15 16 17 18 14 15 14 13 13 13 13 12 13 14 14 14 14 14 15 15 15 16 17 18 19 20 20 22 22 23 23 23 24 23 23 24 24 25 24 24 23 19 17 16